User: anonymous   Login
Location: Unspecified
(0.0000°N, 0.0000°E)
Time: 23:29:41
(UTC+00:00)
Language:

Injun 5 (Explorer 40) - Orbit

View from above orbital plane
View from above orbital plane
View from above satellite
View from above satellite

Ground track
Ground track

The orbit data is extracted from the following two-line orbital elements,

1  3338U 68066B   18140.58509817 +.00000043 +00000-0 +42282-4 0  9999
2  3338 080.6618 180.7022 1131828 216.6667 135.1560 12.22850324217758
Epoch (UTC): 20 May 2018 14:02:32
Eccentricity: 0.1131828
inclination: 80.6618°
perigee height: 679 km
apogee height: 2481 km
right ascension of ascending node: 180.7022°
argument of perigee: 216.6667°
revolutions per day: 12.22850324
mean anomaly at epoch: 135.1560°
orbit number at epoch: 21775

The dashed part of the orbit path shows where the satellite is in the earth's shadow,  

DLR